カタログに戻る

BREEZE-M R/B

運用中HEO
NORAD 44308·ROCKET BODY·🇷🇺 Russia

打ち上げ May 30, 2019 から Baikonur Cosmodrome

Loading…

次のパス (今後24時間)

TLE

最新Source: Space-Track

元期: Sep 10, 2026, 19:03 UTC

1 44308U 19031B   26253.79396657 -.00000323  00000-0  00000-0 0  9992
2 44308  17.5093 169.7993 5481996 286.6250  22.1962  2.00668384 53367

AllMySatでBREEZE-M R/Bをリアルタイム追跡

Download on the App Store